Flag for Germany Weather past 2 weeks in Worms, Rhineland-Palatinate, Germany

Now
64 °F

Broken clouds.


Feels Like: 64 °F
Forecast: 44 / 69 °F
Wind: 8 mph from Southeast

Location: Baden Wurttemberg - Neuostheim


UV Index: 3 (Moderate)

Visibility: N/A


Pressure: 29.68 "Hg

Humidity: 46%

Dew point: 43 °F

Location of WormsLocation

Historic Weather in Worms

°F

Worms temperature yesterday

Maximum temperature yesterday: 66 °F (at 4:20 PM)
Minimum temperature yesterday: 41 °F (at 7:20 AM)
Average temperature yesterday: 56 °F

Past Weeks' High & Low Weather Summary

 TemperatureHumidityPressure
High72 °F (Apr 7, 4:20 PM)100% (Apr 6, 7:50 AM)30.42 "Hg (Apr 6, 7:50 AM)
Low34 °F (Apr 17, 6:50 AM)23% (Apr 17, 6:50 PM)29.71 "Hg (Apr 20, 7:50 AM)
Average56 °F54%30.09 "Hg
* Reported Apr 5 12:20 PM — Apr 20 12:50 PM, Worms, Weather by CustomWeather, © 2014

Note: Actual official high and low records may vary slightly from our data, if they occured in-between our weather recording intervals... More about our weather records

Advertising

Historic Weather Conditions — Data for Previous 24 hours

 ConditionsComfort  
Time TempWeatherWind HumidityBarometerVisibility
12:50 PM
Apr 20
64 °FPartly sunny.7 mph49%29.71 "HgN/A
12:20 PM64 °FPartly sunny.8 mph49%29.71 "HgN/A
11:50 AM64 °FScattered clouds.7 mph52%29.71 "HgN/A
11:20 AM64 °FPassing clouds.9 mph52%29.71 "HgN/A
10:50 AM61 °FScattered clouds.10 mph55%29.71 "HgN/A
10:20 AM63 °FPassing clouds.9 mph56%29.71 "HgN/A
9:50 AM63 °FPassing clouds.6 mph56%29.71 "HgN/A
9:20 AM59 °FPassing clouds.7 mph63%29.71 "HgN/A
8:50 AM57 °FSunny.2 mph72%29.71 "Hg10 mi
8:20 AM55 °FSunny.5 mph72%29.74 "Hg10 mi
7:50 AM54 °FSunny.3 mph77%29.71 "Hg10 mi
7:50 PM
Apr 19
63 °FSunny.9 mph52%29.80 "Hg10 mi
7:20 PM63 °FPassing clouds.9 mph52%29.80 "HgN/A
6:50 PM64 °FSunny.12 mph49%29.80 "Hg10 mi
6:20 PM64 °FPassing clouds.9 mph46%29.80 "HgN/A
5:50 PM66 °FSunny.14 mph43%29.80 "Hg10 mi
5:20 PM64 °FSunny.13 mph46%29.80 "Hg10 mi
4:50 PM66 °FSunny.12 mph40%29.80 "Hg10 mi
4:20 PM66 °FPassing clouds.9 mph40%29.80 "HgN/A
3:50 PM64 °FSunny.9 mph40%29.83 "Hg10 mi
3:20 PM63 °FPassing clouds.9 mph45%29.83 "HgN/A
2:50 PM63 °FPassing clouds.12 mph42%29.86 "HgN/A
2:20 PM61 °FPassing clouds.13 mph45%29.89 "HgN/A
Weather by CustomWeather, © 2014

See weather overview